Location: Aula-Vintri
(58.3875°N, 22.4322°E)
Time: 05:14:41
(UTC+00:00)

Cosmos 1939 Rocket - Pass Details

Date: 13 October 2019
Orbit: 534 x 584 km, 97.4° (Epoch: 11 November)

Event Time Altitude Azimuth Distance (km) Brightness Sun altitude
Rises 16:28:18 0° 146° (SE) 2,719 6.0 -8.2°
Reaches altitude 10° 16:30:27 10° 140° (SE) 1,837 5.1 -8.5°
Maximum altitude 16:34:16 47° 67° (ENE) 749 3.1 -9.0°
Drops below altitude 10° 16:38:11 10° 353° (N) 1,880 5.6 -9.5°
Sets 16:40:24 0° 348° (NNW) 2,790 6.6 -9.8°
